Location: Gro�sch�nbrunn
(49.5760°N, 11.8868°E)
Time: 03:57:34
(UTC+00:00)

Cosmos 1092 Rocket - Pass Details

Date: 18 September 2020
Orbit: 954 x 995 km, 82.9° (Epoch: 19 October)

Event Time Altitude Azimuth Distance (km) Brightness Sun altitude
Rises 19:48:26 0° 348° (NNW) 3,645 7.7 -23.7°
Reaches altitude 10° 19:50:57 10° 346° (NNW) 2,697 6.9 -24.0°
Maximum altitude 19:57:02 66° 266° (W) 1,041 4.2 -24.8°
Enters shadow 20:00:16 29° 192° (SSW) 1,683 5.0 -25.3°
